Voltar ao catálogo

STARLINK-32628

AtivoComunicaçõesVLEO
NORAD 62122·PAYLOAD·🇺🇸 United States

Lançado Nov 27, 2024 de Cape Canaveral Space Force Station

Loading…

Próximas Passagens (próximas 24 horas)

TLE

AtualizadoSource: CelesTrak SupGP

Época: Sep 14, 2026, 21:25 UTC

1 62122C 24222J   26257.89284722 -.00036324  00000+0 -13158-2 0  2575
2 62122  43.0020 147.6280 0001409 266.0288 165.0342 15.27593980    19

Acompanhe STARLINK-32628 em tempo real com AllMySat

Download on the App Store